TimeCDT,TemperatureF,Dew PointF,Humidity,Sea Level PressureIn,VisibilityMPH,Wind Direction,Wind SpeedMPH,Gust SpeedMPH,PrecipitationIn,Events,Conditions,WindDirDegrees,DateUTC
12:13 AM,55.4,53.6,94,29.67,5.0,NNE,9.2,-,N/A,,Overcast,20,2012-10-14 05:13:00
12:32 AM,55.4,53.6,94,29.68,4.0,NNE,8.1,-,N/A,,Overcast,30,2012-10-14 05:32:00
12:52 AM,53.6,53.6,100,29.68,4.0,NNE,8.1,-,N/A,,Overcast,20,2012-10-14 05:52:00
1:13 AM,53.6,53.6,100,29.67,5.0,NNE,12.7,-,N/A,,Overcast,20,2012-10-14 06:13:00
1:32 AM,53.6,53.6,100,29.65,2.0,NNE,13.8,-,N/A,,Overcast,20,2012-10-14 06:32:00
1:52 AM,53.6,51.8,94,29.67,3.0,NNE,9.2,-,N/A,,Overcast,30,2012-10-14 06:52:00
2:13 AM,51.8,51.8,100,29.68,2.0,NNE,12.7,-,N/A,,Overcast,20,2012-10-14 07:13:00
2:32 AM,51.8,51.8,100,29.68,0.5,NNE,9.2,-,N/A,Fog,Fog,20,2012-10-14 07:32:00
2:52 AM,51.8,51.8,100,29.68,1.0,North,9.2,-,N/A,,Overcast,360,2012-10-14 07:52:00
3:13 AM,51.8,51.8,100,29.67,2.0,North,10.4,-,N/A,,Overcast,360,2012-10-14 08:13:00
3:32 AM,50.0,50.0,100,29.67,1.5,North,11.5,-,N/A,,Overcast,360,2012-10-14 08:32:00
3:52 AM,50.0,50.0,100,29.68,1.8,North,10.4,-,N/A,,Light Drizzle,360,2012-10-14 08:52:00
4:12 AM,48.2,48.2,100,29.68,2.5,North,11.5,-,N/A,,Overcast,360,2012-10-14 09:12:00
4:32 AM,48.2,48.2,100,29.67,3.0,North,11.5,-,N/A,,Overcast,360,2012-10-14 09:32:00
4:52 AM,48.2,48.2,100,29.67,1.0,North,12.7,-,N/A,,Overcast,350,2012-10-14 09:52:00
5:12 AM,48.2,48.2,100,29.66,1.2,North,12.7,16.1,N/A,,Overcast,350,2012-10-14 10:12:00
5:33 AM,46.4,46.4,100,29.66,1.8,North,12.7,20.7,N/A,,Overcast,350,2012-10-14 10:33:00
5:52 AM,46.4,46.4,100,29.66,1.5,North,10.4,20.7,N/A,,Overcast,350,2012-10-14 10:52:00
6:12 AM,46.4,46.4,100,29.67,1.5,North,11.5,17.3,N/A,,Overcast,350,2012-10-14 11:12:00
6:33 AM,46.4,46.4,100,29.66,1.8,North,13.8,19.6,N/A,,Overcast,360,2012-10-14 11:33:00
6:52 AM,46.4,46.4,100,29.67,3.0,NNW,10.4,16.1,N/A,,Overcast,340,2012-10-14 11:52:00
7:12 AM,46.4,46.4,100,29.67,3.0,North,12.7,23.0,N/A,,Overcast,350,2012-10-14 12:12:00
7:33 AM,46.4,46.4,100,29.67,3.0,North,15.0,20.7,N/A,,Overcast,350,2012-10-14 12:33:00
7:52 AM,46.4,46.4,100,29.68,3.0,North,16.1,21.9,N/A,,Overcast,350,2012-10-14 12:52:00
8:12 AM,46.4,46.4,100,29.68,2.0,North,15.0,18.4,N/A,,Overcast,350,2012-10-14 13:12:00
8:33 AM,46.4,46.4,100,29.69,3.0,North,16.1,21.9,N/A,,Overcast,350,2012-10-14 13:33:00
8:53 AM,44.6,44.6,100,29.70,5.0,North,15.0,24.2,N/A,,Overcast,350,2012-10-14 13:53:00
9:12 AM,44.6,44.6,100,29.69,5.0,North,19.6,28.8,N/A,,Overcast,350,2012-10-14 14:12:00
9:33 AM,44.6,44.6,100,29.70,5.0,North,17.3,25.3,N/A,,Overcast,350,2012-10-14 14:33:00
9:53 AM,44.6,44.6,100,29.70,5.0,North,16.1,24.2,N/A,,Overcast,350,2012-10-14 14:53:00
10:12 AM,44.6,44.6,100,29.70,5.0,North,19.6,26.5,N/A,,Overcast,360,2012-10-14 15:12:00
10:33 AM,44.6,44.6,100,29.70,10.0,North,20.7,28.8,N/A,,Overcast,350,2012-10-14 15:33:00
10:53 AM,44.6,44.6,100,29.71,10.0,North,17.3,28.8,N/A,,Overcast,350,2012-10-14 15:53:00
11:12 AM,46.4,44.6,93,29.71,10.0,North,20.7,27.6,N/A,,Overcast,350,2012-10-14 16:12:00
11:33 AM,46.4,44.6,93,29.72,10.0,NNW,16.1,23.0,N/A,,Overcast,340,2012-10-14 16:33:00
11:53 AM,46.4,44.6,93,29.73,10.0,NNW,16.1,27.6,N/A,,Overcast,340,2012-10-14 16:53:00
12:12 PM,48.2,44.6,87,29.73,10.0,NNW,18.4,28.8,N/A,,Mostly Cloudy,330,2012-10-14 17:12:00
12:33 PM,51.8,44.6,76,29.74,10.0,NNW,13.8,32.2,N/A,,Scattered Clouds,330,2012-10-14 17:33:00
12:52 PM,51.8,44.6,76,29.73,10.0,NNW,18.4,27.6,N/A,,Scattered Clouds,330,2012-10-14 17:52:00
1:12 PM,53.6,42.8,67,29.73,10.0,NNW,19.6,27.6,N/A,,Scattered Clouds,340,2012-10-14 18:12:00
1:33 PM,53.6,42.8,67,29.74,10.0,NNW,13.8,32.2,N/A,,Scattered Clouds,340,2012-10-14 18:33:00
1:52 PM,55.4,42.8,63,29.74,10.0,NNW,16.1,28.8,N/A,,Scattered Clouds,330,2012-10-14 18:52:00
2:13 PM,55.4,41.0,58,29.74,10.0,NNW,18.4,26.5,N/A,,Clear,340,2012-10-14 19:13:00
2:33 PM,55.4,41.0,58,29.74,10.0,North,17.3,28.8,N/A,,Clear,350,2012-10-14 19:33:00
3:12 PM,55.4,39.2,54,29.76,10.0,NNW,17.3,28.8,N/A,,Clear,340,2012-10-14 20:12:00
3:33 PM,55.4,39.2,54,29.76,10.0,NNW,17.3,25.3,N/A,,Clear,340,2012-10-14 20:33:00
3:52 PM,55.4,39.2,54,29.77,10.0,NNW,18.4,24.2,N/A,,Clear,340,2012-10-14 20:52:00
4:12 PM,55.4,37.4,51,29.78,10.0,NW,15.0,25.3,N/A,,Clear,320,2012-10-14 21:12:00
4:32 PM,55.4,37.4,51,29.78,10.0,NNW,16.1,24.2,N/A,,Clear,330,2012-10-14 21:32:00
4:53 PM,55.4,37.4,51,29.79,10.0,NNW,13.8,24.2,N/A,,Clear,330,2012-10-14 21:53:00
5:12 PM,55.4,37.4,51,29.80,10.0,NNW,13.8,24.2,N/A,,Clear,340,2012-10-14 22:12:00
5:32 PM,55.4,37.4,51,29.81,10.0,NNW,12.7,19.6,N/A,,Clear,330,2012-10-14 22:32:00
5:53 PM,53.6,37.4,54,29.82,10.0,NNW,11.5,20.7,N/A,,Clear,330,2012-10-14 22:53:00
6:12 PM,53.6,37.4,54,29.82,10.0,NNW,9.2,-,N/A,,Clear,330,2012-10-14 23:12:00
6:32 PM,51.8,37.4,58,29.82,10.0,NNW,8.1,-,N/A,,Clear,330,2012-10-14 23:32:00
6:52 PM,51.8,37.4,58,29.83,10.0,NNW,6.9,-,N/A,,Clear,330,2012-10-14 23:52:00
7:12 PM,50.0,35.6,58,29.84,10.0,NW,5.8,-,N/A,,Clear,320,2012-10-15 00:12:00
7:33 PM,50.0,35.6,58,29.85,10.0,NW,6.9,-,N/A,,Clear,320,2012-10-15 00:33:00
7:52 PM,48.2,35.6,62,29.85,10.0,NW,4.6,-,N/A,,Clear,320,2012-10-15 00:52:00
8:12 PM,48.2,35.6,62,29.85,10.0,NW,3.5,-,N/A,,Clear,310,2012-10-15 01:12:00
8:32 PM,46.4,35.6,66,29.86,10.0,Calm,Calm,-,N/A,,Clear,0,2012-10-15 01:32:00
8:52 PM,46.4,35.6,66,29.86,10.0,WNW,4.6,-,N/A,,Clear,290,2012-10-15 01:52:00
9:12 PM,44.6,37.4,76,29.87,10.0,WNW,3.5,-,N/A,,Mostly Cloudy,290,2012-10-15 02:12:00
9:32 PM,46.4,37.4,71,29.87,10.0,WNW,4.6,-,N/A,,Overcast,290,2012-10-15 02:32:00
9:53 PM,48.2,37.4,66,29.87,10.0,West,3.5,-,N/A,,Mostly Cloudy,280,2012-10-15 02:53:00
10:12 PM,46.4,37.4,71,29.88,10.0,West,5.8,-,N/A,,Scattered Clouds,280,2012-10-15 03:12:00
10:32 PM,44.6,37.4,76,29.88,10.0,WNW,5.8,-,N/A,,Clear,290,2012-10-15 03:32:00
10:53 PM,44.6,37.4,76,29.88,10.0,WNW,5.8,-,N/A,,Clear,290,2012-10-15 03:53:00
11:12 PM,44.6,37.4,76,29.89,10.0,West,3.5,-,N/A,,Clear,280,2012-10-15 04:12:00
11:32 PM,44.6,37.4,76,29.89,10.0,WNW,6.9,-,N/A,,Mostly Cloudy,290,2012-10-15 04:32:00
11:53 PM,44.6,37.4,76,29.89,10.0,WNW,5.8,-,N/A,,Mostly Cloudy,290,2012-10-15 04:53:00